sat.trackr.live / text

‹ back to catalog

STARLINK-31750

NORAD 59552 · 2024-074U

PAYLOAD ACTIVE UNKNOWN

§ Identity

Operator
Country
US
Launch date
2024-04-18
Launch site
AFETR
Launch vehicle
Mass (kg)
RCS (m²)

Purposes: comms

External: N2YO · Heavens-Above · Gunter

§ Orbital elements

Epoch: 2026-09-21T10:54:13.206528Z

Period
94.27 min
Inclination
43.0016°
Eccentricity
0.0001256
Mean motion
15.27575272 rev/d
Perigee alt
482.2 km
Apogee alt
483.9 km
Semi-major
6,861.2 km
B*
1.1789e-5
RAAN
317.9759°
Arg perigee
285.5902°
Mean anomaly
74.4811°
Rev number
13,595

§ Raw data

STARLINK-317501 59552U 24074U   26264.45431952  .00000062  00000+0  11789-4 0  99932 59552  43.0016 317.9759 0001256 285.5902  74.4811 15.27575272135959

JSON: /api/v1/satellites/59552 · /tle

For live sub-satellite position, see the globe view (requires WebGL).

§ Visibility from observer

Set your observer location to see the next 7 days of passes ≥ 10°. The values pass through the URL so the page stays shareable.

No JS? Fill the form by hand. The geolocation button needs JavaScript.